Miscellaneous Local Product
Issued by NWS North Platte, NE

Home | Current Version | Previous Version | Text Only | Print | Product List | Glossary On
Versions: 1 2 3 4 5 6 7 8 9 10 11 12 13 14 15 16 17 18 19 20 21 22 23 24 25 26 27 28 29 30 31 32 33 34 35 36 37 38 39 40 41 42 43 44 45 46 47 48 49 50
000
AXUS43 KLBF 211510
MISLBF


WESTERN AND NORTH CENTRAL NEBRASKA HOURLY WEATHER ROUNDUP
NATIONAL WEATHER SERVICE NORTH PLATTE NE
900 AM CST SUN DEC 21 2014

***STATIONS NOT REPORTING VARIABLES SUCH AS SKY/WEATHER OR
PRESSURE ARE PROVIDED BY THE NEBRASKA DEPARTMENT OF
ROADS...RAWS...AND APRS NETWORKS...AND ARE NOT UNDER
NATIONAL WEATHER SERVICE QUALITY CONTROL***

...OBSERVATIONS IN AND NEAR THE EASTERN PANHANDLE OF NEBRASKA...

CITY           SKY/WX    TMP DP  RH WIND       PRES   REMARKS
PINE RIDGE     CLEAR     27  21  78 CALM      29.58F
CHADRON        PTCLDY    27  21  78 CALM      29.56F
ALLIANCE       CLEAR     32  22  66 SW13      29.60F WCI  22
SIDNEY         MOCLDY    29  21  72 SW12      29.67F WCI  19
WHITECLAY        N/A     25  20  80 E12         N/A  WCI  14
CRESCENT LAKE    N/A     30  23  74 SE5         N/A  WCI  25
LISCO            N/A     29  22  74 CALM        N/A
BIG SPRINGS      N/A     23  20  87 SW13        N/A  WCI  11
$$

...OBSERVATIONS IN NORTH CENTRAL NEBRASKA...

CITY           SKY/WX    TMP DP  RH WIND       PRES   REMARKS
VALENTINE      CLEAR     23  20  88 CALM      29.63F
THEDFORD       CLEAR     32  27  81 S7        29.67F WCI  26
AINSWORTH      CLEAR     33  25  74 SW13      29.64F WCI  23
O`NEILL        CLOUDY    30  29  96 S6        29.70F WCI  24
BROKEN BOW     PTCLDY    26  23  88 CALM      29.71F FOG
BROWNLEE         N/A     28  22  79 S8          N/A  WCI  19
SPRINGVIEW       N/A     21  19  93 CALM        N/A
BREWSTER         N/A     32  28  86 CALM        N/A
ROSE             N/A     33  32  96 SE5         N/A  WCI  28
SARGENT          N/A     26  25  96 CALM        N/A
COMSTOCK         N/A     36  32  87 S12         N/A  WCI  28
CHAMBERS         N/A     31  30  95 CALM        N/A
EWING            N/A     28  27  97 CALM        N/A
$$

...OBSERVATIONS IN SOUTHWEST NEBRASKA AND FAR NORTHEAST COLORADO...

CITY           SKY/WX    TMP DP  RH WIND       PRES   REMARKS
WRAY           FAIR      25  21  85 SW7       29.73F WCI  17
HOLYOKE        FAIR      27  21  80 W7        29.71F WCI  19
IMPERIAL       CLEAR     28  23  81 SW7       29.72F WCI  21
OGALLALA       CLEAR     19  17  94 W9        29.69F WCI   8
NORTH PLATTE   CLEAR     22  20  92 CALM      29.71F FOG
MCCOOK         CLEAR     31  28  89 SW8       29.75F WCI  23
LEXINGTON      PTCLDY    30  28  94 CALM      29.74F FOG
PAXTON           N/A     22  20  90 CALM        N/A
BRADY            N/A     23  21  91 CALM        N/A
GOTHENBURG       N/A     29  26  86 CALM        N/A
CALLAWAY         N/A     31  27  85 S5          N/A  WCI  26
$$

...NORTH PLATTE AREA...

CITY           SKY/WX    TMP DP  RH WIND       PRES   REMARKS
AIRPORT        CLEAR     22  20  92 CALM      29.71F FOG
DOWNTOWN         N/A     27  25  92 CALM        N/A
$$

...SOME WEATHER OBSERVATIONS FROM AROUND THE REGION...

CITY           SKY/WX    TMP DP  RH WIND       PRES   REMARKS
DENVER         CLOUDY    34  20  56 S13       29.68F WCI  25
LARAMIE        CLOUDY    30  21  69 SW18      29.69F WCI  18
CHEYENNE       CLOUDY    40  18  41 SW18G30   29.65F WCI  31
SCOTTSBLUFF    MOCLDY    23  18  81 E8        29.62F WCI  14
RAPID CITY     PTCLDY    25  18  74 CALM      29.50F
PIERRE         CLEAR     24  22  91 SE7       29.59F WCI  16
WINNER         FAIR      35  26  69 S18       29.61F WCI  24
SIOUX FALLS    FOG       32  32 100 S13       29.75S VSB 1/8 WCI  22
OMAHA          CLOUDY    38  36  92 S16       29.88F FOG     WCI  29
GRAND ISLAND   PTCLDY    33  32  96 S13       29.78F FOG     WCI  24
KANSAS CITY    DRIZZLE   39  37  92 S13       30.00F WCI  31
WICHITA        CLOUDY    41  37  86 S13       29.95F
HAYS           CLOUDY    39  32  75 S10       29.85S WCI  32
LIBERAL        CLOUDY    37  34  87 S8        29.83F WCI  31
GOODLAND       CLEAR     31  27  85 W5        29.75F WCI  26
$$



USA.gov is the U.S. government's official web portal to all federal, state and local government web resources and services.